[[{"header":{"parameterUnit":"m.s-1","parameterCategory":1,"la1":30.2991,"la2":30.254,"lo1":-89.0895,"lo2":-89.0444,"dy":0.0017,"dx":0.0017,"nx":28,"ny":28,"refTime":"2023-09-16T03:00:00:Z","depth":0,"parameterNumber":2,"parameterNumberName":"U-component_of_WINDS"},"data":[0,0,0,0,0,0,0,0,0,0,0,0,0,0,0,0,0,0,0,0,0,0,0,0,0,0,0,0,0,0,0,0,0,0,0,0,0,0,0,0,0,0,0,0,0,0,0,0,0,0,0,0,0,0,0,0,0,0,1.6631,1.6631,0,1.665,1.665,1.6651,1.6635,1.6635,1.6634,1.6633,1.6653,1.6654,1.6655,0,0,0,0,0,0,0,0,0,0,0,0,0,1.6582,1.6583,1.6631,1.6631,1.6631,1.665,1.665,1.6651,1.6635,1.6635,1.6634,1.6633,1.6653,1.6654,1.6656,0,0,0,0,0,0,0,0,0,0,0,0,0,1.6603,1.6584,1.6631,1.6626,1.6626,1.665,1.665,1.6651,1.6635,1.6634,1.6634,1.6633,1.6652,1.6654,1.6656,1.6686,0,0,1.6661,1.6662,0,0,0,0,0,0,0,0,1.6602,1.6604,1.6626,1.6626,1.6626,1.6639,1.6641,1.6662,1.6636,1.6632,1.6633,1.6632,1.6649,1.6651,1.6657,1.6687,1.6688,1.6661,1.6662,1.6663,1.6663,0,0,0,0,0,0,0,1.66,1.6604,1.6638,1.6627,1.6626,1.6623,1.6625,1.6645,1.6646,1.6632,1.6631,1.6633,1.6649,1.6655,1.6657,1.6688,1.6661,1.6663,1.6664,1.6664,1.6746,1.6747,0,0,0,0,0,0,1.6599,1.6602,1.6638,1.6639,1.6611,1.6625,1.6627,1.6636,1.6646,1.6646,1.6634,1.6633,1.6653,1.6655,1.6658,1.6696,1.6663,1.6665,1.6665,1.6745,1.6747,1.6748,0,0,0,0,0,0,1.6598,1.6602,1.6637,1.662,1.6625,1.6627,1.6637,1.6637,1.6643,1.6647,1.6647,1.664,1.6652,1.6656,1.668,1.6696,1.6665,1.6667,1.6744,1.6746,1.6747,1.677,0,0,0,0,0,0,1.6597,1.6602,1.6613,1.6621,1.6626,1.6658,1.6638,1.6638,1.6646,1.6644,1.6653,1.6654,1.6652,1.6677,1.6681,1.6698,1.6668,1.6742,1.6745,1.6747,1.6768,1.6773,1.6776,0,0,0,0,0,1.6595,1.6618,1.6614,1.6618,1.6639,1.6659,1.6661,1.6659,1.6647,1.6659,1.6662,1.6653,1.6694,1.668,1.6684,1.6702,1.6741,1.6744,1.6746,1.6766,1.6772,1.6776,0,0,0,0,0,0,1.6612,1.6619,1.6614,1.664,1.6649,1.6656,1.667,1.6664,1.6677,1.6674,1.6671,1.6673,1.6699,1.6702,1.6687,1.6733,1.6716,1.6719,1.6729,1.6734,1.6739,1.6737,1.667,0,0,0,0,0,1.6618,1.6633,1.6639,1.6662,1.6667,1.6668,1.6676,1.6674,1.6683,1.6686,1.6691,1.67,1.6715,1.6725,1.6739,1.6769,1.6771,1.6783,1.6787,1.6791,1.6794,1.6812,1.6818,1.6756,1.6756,1.6756,0,0,1.6632,1.6638,1.6648,1.6665,1.6672,1.6688,1.6671,1.6688,1.6701,1.6689,1.6712,1.6716,1.6726,1.6754,1.6767,1.6758,1.6812,1.6794,1.6797,1.6798,1.6815,1.6821,1.6827,1.6758,1.6758,1.6757,0,0,1.6667,1.6672,1.6693,1.67,1.671,1.6711,1.6716,1.6725,1.6727,1.6751,1.6743,1.6758,1.6783,1.6791,1.6799,1.6839,1.6832,1.6843,1.6865,1.6883,1.6888,1.6893,1.6908,1.6914,1.6847,1.6847,1.6847,0,1.6683,1.6707,1.6704,1.6723,1.6731,1.6722,1.6743,1.6751,1.6765,1.6772,1.6762,1.6795,1.6801,1.6832,1.6842,1.6848,1.6855,1.6842,1.6888,1.6892,1.6896,1.6911,1.6917,1.6848,1.6848,1.6848,1.6848,0,1.6727,1.6744,1.6759,1.6774,1.6785,1.6805,1.6806,1.6817,1.6814,1.6816,1.6842,1.6849,1.6865,1.6872,1.6869,1.6903,1.6898,1.6888,1.6871,1.6903,1.6918,1.6923,1.685,1.685,1.6849,1.6849,0,0,1.6771,1.6786,1.6792,1.6799,1.6811,1.6824,1.6845,1.6861,1.6871,1.6882,1.69,1.6923,1.6915,1.6923,1.6921,1.6937,1.697,1.6925,1.6926,1.6935,1.7011,1.7019,1.7025,1.6966,1.6967,1.6968,1.701,0,1.6807,1.6842,1.6841,1.6875,1.6892,1.6884,1.6902,1.6912,1.6915,1.693,1.6934,1.6951,1.6938,1.6943,1.6959,1.6963,1.6986,1.696,1.6984,1.6985,1.6982,1.7032,1.704,1.708,1.7016,1.7017,1.7017,0,1.6853,1.6867,1.6902,1.6913,1.692,1.6937,1.6953,1.6967,1.6979,1.698,1.6991,1.6987,1.7009,1.6991,1.7023,1.7005,1.7015,1.7019,1.702,1.7023,1.7003,1.7038,1.7092,1.7099,1.7026,1.7025,1.7024,0,1.6884,1.6911,1.6936,1.6942,1.6956,1.6968,1.6974,1.6985,1.6995,1.7009,1.7017,1.7033,1.7042,1.7055,1.7057,1.7043,1.7089,1.7071,1.7092,1.7092,1.7102,1.7101,1.716,1.7107,1.7107,1.7106,1.7106,0,1.6924,1.6947,1.695,1.6966,1.6991,1.699,1.7016,1.7021,1.7031,1.7048,1.7042,1.7059,1.7059,1.7076,1.7077,1.7104,1.7107,1.711,1.711,1.7111,1.7111,1.7118,1.7116,1.7108,1.7108,1.7107,1.7107,0,1.6963,1.6966,1.6993,1.7004,1.7008,1.7026,1.7036,1.7052,1.7055,1.7077,1.7082,1.7088,1.7108,1.711,1.7133,1.7134,1.7167,1.7164,1.7164,1.7163,1.7185,1.7183,1.7251,1.7261,1.72,1.72,1.7201,0,1.6989,1.7006,1.702,1.7031,1.7038,1.7056,1.7068,1.7068,1.708,1.7096,1.711,1.713,1.7146,1.7178,1.7185,1.7203,1.7201,1.7223,1.7204,1.7205,1.7203,1.7203,1.7205,1.7227,1.7228,1.7229,1.7229,0,1.7036,1.7037,1.7053,1.7071,1.7085,1.7098,1.7111,1.7121,1.7123,1.7137,1.7158,1.7171,1.7195,1.7215,1.7234,1.7241,1.7236,1.7235,1.7242,1.7243,1.7243,1.7245,1.7175,1.7234,1.7233,1.7233,1.7233,1.7233,1.707,1.7086,1.7098,1.7117,1.7128,1.714,1.7156,1.7162,1.718,1.72,1.7199,1.7223,1.7236,1.726,1.7269,1.7288,1.7281,1.7289,1.7291,1.7294,1.7297,1.7239,1.7291,1.7291,1.7291,1.7291,1.7291,0,1.7118,1.7126,1.7143,1.7163,1.7178,1.7172,1.7187,1.72,1.7221,1.7234,1.725,1.7275,1.7295,1.7304,1.7324,1.7338,1.7336,1.7343,1.7343,1.7345,1.7301,1.7295,1.7344,1.7344,1.7344,1.7344,1.7344,1.7344,1.7144,1.7172,1.7175,1.7207,1.7215,1.7239,1.7248,1.726,1.7271,1.7299,1.7316,1.7322,1.7334,1.7355,1.7374,1.7376,1.7384,1.7392,1.7394,1.7353,1.7348,1.7342,1.7336,1.7394,1.7394,1.7436,1.7436,1.7436]},{"header":{"parameterUnit":"m.s-1","parameterCategory":1,"la1":30.2991,"la2":30.254,"lo1":-89.0895,"lo2":-89.0444,"dy":0.0017,"dx":0.0017,"nx":28,"ny":28,"refTime":"2023-09-16T03:00:00:Z","depth":0,"parameterNumber":3,"parameterNumberName":"V-component_of_WINDS"},"data":[0,0,0,0,0,0,0,0,0,0,0,0,0,0,0,0,0,0,0,0,0,0,0,0,0,0,0,0,0,0,0,0,0,0,0,0,0,0,0,0,0,0,0,0,0,0,0,0,0,0,0,0,0,0,0,0,0,0,-4.2859,-4.2859,0,-4.287,-4.2871,-4.2871,-4.2879,-4.2879,-4.2879,-4.2879,-4.2885,-4.2885,-4.2885,0,0,0,0,0,0,0,0,0,0,0,0,0,-4.2841,-4.2842,-4.2859,-4.2859,-4.2859,-4.287,-4.2871,-4.2871,-4.2879,-4.2879,-4.2879,-4.2879,-4.2885,-4.2885,-4.2885,0,0,0,0,0,0,0,0,0,0,0,0,0,-4.285,-4.2842,-4.2859,-4.2865,-4.2866,-4.287,-4.2871,-4.2871,-4.2879,-4.2879,-4.2879,-4.2879,-4.2885,-4.2885,-4.2885,-4.2884,0,0,-4.2886,-4.2886,0,0,0,0,0,0,0,0,-4.285,-4.2851,-4.2864,-4.2865,-4.2865,-4.2873,-4.2867,-4.2875,-4.2879,-4.2874,-4.2879,-4.2879,-4.2881,-4.2881,-4.2883,-4.2884,-4.2884,-4.2886,-4.2886,-4.2886,-4.2886,0,0,0,0,0,0,0,-4.2849,-4.2851,-4.2863,-4.2864,-4.2865,-4.2866,-4.2867,-4.2868,-4.2876,-4.2874,-4.2875,-4.2876,-4.2881,-4.2883,-4.2883,-4.2885,-4.2886,-4.2886,-4.2886,-4.2886,-4.2887,-4.2887,0,0,0,0,0,0,-4.2848,-4.285,-4.2863,-4.2864,-4.2858,-4.2866,-4.2868,-4.2871,-4.2876,-4.2877,-4.2876,-4.2876,-4.2883,-4.2883,-4.2883,-4.2884,-4.2886,-4.2886,-4.2886,-4.2887,-4.2887,-4.2887,0,0,0,0,0,0,-4.2848,-4.2849,-4.2863,-4.2857,-4.2859,-4.2866,-4.2869,-4.2871,-4.2873,-4.2878,-4.2879,-4.2877,-4.2883,-4.2883,-4.2885,-4.2884,-4.2886,-4.2886,-4.2887,-4.2887,-4.2887,-4.2883,0,0,0,0,0,0,-4.2847,-4.2849,-4.2849,-4.2857,-4.2859,-4.2864,-4.2869,-4.2871,-4.2873,-4.2874,-4.2879,-4.2879,-4.2883,-4.2884,-4.2885,-4.2884,-4.2886,-4.2888,-4.2887,-4.2887,-4.2883,-4.2883,-4.2882,0,0,0,0,0,-4.2847,-4.2846,-4.2849,-4.2851,-4.286,-4.2864,-4.2865,-4.2871,-4.2873,-4.2873,-4.2877,-4.2879,-4.2884,-4.2885,-4.2885,-4.2884,-4.2888,-4.2887,-4.2887,-4.2883,-4.2883,-4.2882,0,0,0,0,0,0,-4.2835,-4.2847,-4.2851,-4.2852,-4.2858,-4.2866,-4.2865,-4.287,-4.2873,-4.2873,-4.2878,-4.2879,-4.288,-4.2882,-4.2883,-4.2884,-4.2886,-4.2886,-4.2883,-4.2882,-4.2882,-4.2881,-4.2887,0,0,0,0,0,-4.2833,-4.2837,-4.2847,-4.2847,-4.285,-4.2858,-4.286,-4.2864,-4.2869,-4.287,-4.2874,-4.2878,-4.288,-4.2881,-4.2884,-4.2884,-4.2885,-4.2884,-4.2883,-4.2883,-4.2882,-4.2884,-4.2884,-4.2887,-4.2887,-4.2887,0,0,-4.2828,-4.2835,-4.2837,-4.2845,-4.285,-4.2853,-4.2859,-4.2862,-4.2865,-4.287,-4.2873,-4.2876,-4.288,-4.2881,-4.2882,-4.2883,-4.2883,-4.2883,-4.2882,-4.2882,-4.2884,-4.2884,-4.2884,-4.2887,-4.2887,-4.2887,0,0,-4.2821,-4.2827,-4.2829,-4.2834,-4.2842,-4.2848,-4.2848,-4.2856,-4.286,-4.2863,-4.2868,-4.287,-4.2874,-4.2878,-4.288,-4.2878,-4.288,-4.2878,-4.2876,-4.2877,-4.2877,-4.2877,-4.2877,-4.2877,-4.2878,-4.2878,-4.2878,0,-4.2813,-4.282,-4.2829,-4.2833,-4.2837,-4.2845,-4.2847,-4.2851,-4.2859,-4.2861,-4.2862,-4.287,-4.2873,-4.2876,-4.2876,-4.2877,-4.2878,-4.2877,-4.2877,-4.2877,-4.2877,-4.2877,-4.2877,-4.2878,-4.2878,-4.2878,-4.2878,0,-4.2811,-4.2816,-4.2816,-4.2827,-4.2831,-4.2833,-4.2842,-4.2845,-4.285,-4.2855,-4.2859,-4.2863,-4.2868,-4.2869,-4.2872,-4.2873,-4.2874,-4.2876,-4.2878,-4.2876,-4.2877,-4.2877,-4.2877,-4.2878,-4.2878,-4.2878,0,0,-4.2794,-4.2812,-4.2812,-4.2818,-4.2829,-4.2832,-4.2836,-4.2843,-4.2846,-4.2851,-4.2854,-4.2859,-4.2862,-4.2865,-4.2869,-4.287,-4.287,-4.2872,-4.2873,-4.2872,-4.2873,-4.2871,-4.2871,-4.2872,-4.2872,-4.2872,-4.2873,0,-4.2789,-4.2798,-4.2808,-4.2813,-4.2818,-4.2827,-4.2831,-4.2838,-4.2843,-4.2848,-4.2853,-4.2857,-4.286,-4.2862,-4.2865,-4.287,-4.287,-4.287,-4.2875,-4.2875,-4.2874,-4.2871,-4.2869,-4.2869,-4.2873,-4.2873,-4.2873,0,-4.2784,-4.2792,-4.2799,-4.2812,-4.2814,-4.2817,-4.2826,-4.283,-4.2838,-4.2842,-4.2847,-4.2853,-4.2857,-4.2859,-4.2865,-4.2865,-4.2868,-4.2871,-4.2871,-4.2871,-4.2874,-4.2872,-4.2869,-4.2869,-4.2873,-4.2873,-4.2873,0,-4.2773,-4.2785,-4.2791,-4.2796,-4.281,-4.2813,-4.2819,-4.2827,-4.2832,-4.2839,-4.2842,-4.2848,-4.2852,-4.2856,-4.2863,-4.2864,-4.2869,-4.2871,-4.2872,-4.2872,-4.2872,-4.2872,-4.287,-4.2874,-4.2874,-4.2874,-4.2874,0,-4.2766,-4.277,-4.2787,-4.279,-4.2795,-4.2806,-4.281,-4.2817,-4.2825,-4.283,-4.2838,-4.2842,-4.2851,-4.2856,-4.2861,-4.2867,-4.2868,-4.2871,-4.2872,-4.287,-4.287,-4.2872,-4.2872,-4.2874,-4.2874,-4.2874,-4.2874,0,-4.2753,-4.2765,-4.2772,-4.2787,-4.2791,-4.2794,-4.2807,-4.281,-4.2818,-4.2824,-4.2826,-4.2837,-4.2844,-4.2852,-4.286,-4.2864,-4.2869,-4.287,-4.2866,-4.2867,-4.2868,-4.2868,-4.2867,-4.2868,-4.2871,-4.2871,-4.2871,0,-4.2748,-4.2752,-4.2768,-4.2774,-4.278,-4.2788,-4.2793,-4.2805,-4.281,-4.2821,-4.2824,-4.2832,-4.2839,-4.2849,-4.2857,-4.2864,-4.2867,-4.2866,-4.2867,-4.2866,-4.2867,-4.2867,-4.2868,-4.2865,-4.2865,-4.2865,-4.2865,0,-4.2738,-4.2745,-4.2753,-4.2765,-4.2772,-4.2781,-4.279,-4.2793,-4.2807,-4.2812,-4.2821,-4.2827,-4.2837,-4.2845,-4.2854,-4.2859,-4.2864,-4.2865,-4.2866,-4.2863,-4.2861,-4.2863,-4.2866,-4.2864,-4.2864,-4.2864,-4.2864,-4.2864,-4.273,-4.2734,-4.2748,-4.2758,-4.2767,-4.2776,-4.2781,-4.2791,-4.2799,-4.281,-4.2816,-4.2824,-4.2834,-4.2847,-4.2853,-4.2859,-4.2861,-4.2861,-4.2861,-4.2861,-4.2861,-4.2861,-4.286,-4.286,-4.2861,-4.2861,-4.2861,0,-4.2721,-4.2731,-4.274,-4.2754,-4.2763,-4.277,-4.2781,-4.2787,-4.2795,-4.2805,-4.2813,-4.2824,-4.2832,-4.2842,-4.2851,-4.2855,-4.2858,-4.2857,-4.2857,-4.2858,-4.2859,-4.2858,-4.2855,-4.2855,-4.2855,-4.2855,-4.2855,-4.2855,-4.2717,-4.2726,-4.2735,-4.2748,-4.2758,-4.2768,-4.2775,-4.2783,-4.2792,-4.2804,-4.2812,-4.282,-4.283,-4.284,-4.2849,-4.2851,-4.2854,-4.2853,-4.2857,-4.2857,-4.2858,-4.2858,-4.2857,-4.2854,-4.2854,-4.2855,-4.2855,-4.2855]}]]